User: anonymous   Login
Location: Unspecified
(0.0000°N, 0.0000°E)
Time: 10:09:52
(UTC+00:00)
Language:

STARLINK-11471 [DTC] - Orbit

View from above orbital plane
View from above orbital plane
View from above satellite
View from above satellite

Ground track
Ground track

The orbit is defined by the following mean orbital elements,

1 62225U          26145.53359113 +.00000000 +00000-0 +13882-2 0 00002
2 62225  53.1565  82.2473 0001505  69.9564 290.1616 15.69782162    02
Epoch (UTC): 25 May 2026 12:48:22
Eccentricity: 0.0001505
inclination: 53.1565°
perigee height: 359 km
apogee height: 361 km
right ascension of ascending node: 82.2473°
argument of perigee: 69.9564°
revolutions per day: 15.69782162
mean anomaly at epoch: 290.1616°

The dashed part of the orbit path shows where the satellite is in the earth's shadow,  

DLR